This is the latest recevied weather packets stored in our database for station/object N7MLR. If no packets are shown the sender has not sent any weather packets the latest 10 day(s).
| Time | Temp. | Humidity | Pressure | Rain* | Wind** | Luminosity | Snow |
|---|---|---|---|---|---|---|---|
| 1777474100 | 24.44° C | 96% | 1012.5 hPa | 0 mm | - | 49 W/m² | - |
| 1777473798 | 24.44° C | 97% | 1012.5 hPa | 0 mm | - | 55 W/m² | - |
| 1777473495 | 23.89° C | 98% | 1012.5 hPa | 0 mm | - | 60 W/m² | - |
| 1777473190 | 23.89° C | 98% | 1012.6 hPa | 0 mm | - | 59 W/m² | - |
| 1777472887 | 23.89° C | 98% | 1012.3 hPa | 0 mm | - | 64 W/m² | - |
| 1777472583 | 23.89° C | 98% | 1012.4 hPa | 0 mm | - | 63 W/m² | - |
| 1777472280 | 23.89° C | 98% | 1012.6 hPa | 0 mm | - | 59 W/m² | - |
| 1777471975 | 23.89° C | 98% | 1012.6 hPa | 0 mm | - | 48 W/m² | - |
| 1777471667 | 23.89° C | 99% | 1012.5 hPa | 0 mm | - | 45 W/m² | - |
| 1777471363 | 23.89° C | 99% | 1012.2 hPa | 0 mm | - | 48 W/m² | - |
| 1777471060 | 23.89° C | 99% | 1012.3 hPa | 0 mm | - | 56 W/m² | - |
| 1777470757 | 23.89° C | 99% | 1012.3 hPa | 0 mm | - | 42 W/m² | - |
| 1777470453 | 23.89° C | 99% | 1012.3 hPa | 0 mm | - | 58 W/m² | - |
| 1777470150 | 23.89° C | 99% | 1012.5 hPa | 0 mm | - | 47 W/m² | - |
| 1777469846 | 23.89° C | 99% | 1012.3 hPa | 0 mm | - | 62 W/m² | - |
| 1777469542 | 23.89° C | 99% | 1012.2 hPa | 0 mm | - | 42 W/m² | - |
| 1777469236 | 23.89° C | 99% | 1012.3 hPa | 0 mm | - | 31 W/m² | - |
| 1777468931 | 23.89° C | 99% | 1012.1 hPa | 0 mm | - | 25 W/m² | - |
| 1777468628 | 23.89° C | 99% | 1012.3 hPa | 0 mm | - | 27 W/m² | - |
| 1777468325 | 23.89° C | 99% | 1012.5 hPa | 0 mm | - | 10 W/m² | - |
| 1777468021 | 23.89° C | 99% | 1012.3 hPa | 0 mm | - | 12 W/m² | - |
| 1777467716 | 23.89° C | 98% | 1012.2 hPa | 0 mm | - | 14 W/m² | - |
| 1777467412 | 23.89° C | 98% | 1012.2 hPa | 0 mm | - | 9 W/m² | - |
| 1777467108 | 23.89° C | 98% | 1011.8 hPa | 0 mm | - | 11 W/m² | - |
| 1777466805 | 23.89° C | 98% | 1011.4 hPa | 0 mm | - | 10 W/m² | - |
* Rain latest hour (hover to see other rain measurements)
** Current wind speed in m/s (hover to see current wind gust speed)